Location: Unspecified
(0.0000°N, 0.0000°E)
Time: 11:21:27
(UTC+00:00)

Vanguard 3 - Pass Details

Date: 28 November 2019
Orbit: 508 x 3263 km, 33.3° (Epoch: 07 December)

Event Time Altitude Azimuth Distance (km) Brightness Sun altitude
Rises 05:27:32 0° 200° (SSW) 3,113 10.2 -4.7°
Reaches altitude 10° 05:30:21 10° 180° (S) 2,473 9.9 -4.1°
Maximum altitude 05:34:23 18° 136° (SE) 2,360 10.7 -3.1°
Drops below altitude 10° 05:39:52 10° 96° (E) 3,565 12.1 -1.8°
Sets 05:45:08 0° 80° (E) 5,152 12.4 -0.6°
